Home > Weather > Resolute Bay > Past weeks

Flag for Canada Past Weather in Resolute Bay, Nunavut, Canada — Yesterday and Last 2 Weeks

Now
48 °F

Overcast.


Feels Like: 43 °F
Forecast: 39 / 49 °F
Wind: 14 mph from Southeast

Location: Resolute

Current Time: Jul 27, 2016 at 11:53:17 PM

Latest Report: Jul 27, 2016 at 11:00 PM


Visibility: 15 mi

Pressure: 30.24 "Hg

Humidity: 82%

Dew Point: 43 °F

Location of Resolute BayLocation

Past Weather in Resolute Bay — Graph

°F

Resolute Bay Temperature Yesterday

Maximum temperature yesterday: 39 °F (at 12:00 AM)
Minimum temperature yesterday: 34 °F (at 3:00 AM)
Average temperature yesterday: 36 °F

High & Low Weather Summary for the Past Weeks

 TemperatureHumidityPressure
High50 °F (Jul 15, 2:00 PM)100% (Jul 13, 7:00 PM)30.25 "Hg (Jul 13, 7:00 PM)
Low32 °F (Jul 14, 9:00 AM)66% (Jul 12, 10:00 PM)29.26 "Hg (Jul 14, 11:00 PM)
Average40 °F89%29.71 "Hg
* Reported Jul 12 10:00 PM — Jul 27 10:00 PM, Resolute Bay, Weather by CustomWeather, © 2016

Note: Actual official high and low records may vary slightly from our data, if they occured in-between our weather recording intervals... More about our weather records

Advertising

Resolute Bay Weather History for the Previous 24 Hours

Scroll right to see more
 ConditionsComfort  
Time TempWeatherWind HumidityBarometerVisibility
10:00 PM
Wed, Jul 27
41 °FPartly sunny.No wind93%30.25 "Hg15 mi
9:00 PM43 °FOvercast.7 mph93%30.25 "Hg15 mi
8:00 PM46 °FPartly sunny.9 mph87%30.24 "Hg10 mi
7:00 PM43 °FPartly sunny.5 mph93%30.25 "Hg10 mi
6:00 PM39 °FFog.10 mph93%30.25 "Hg10 mi
5:00 PM41 °FFog.5 mph87%30.24 "Hg10 mi
4:00 PM43 °FFog.5 mph81%30.24 "Hg8 mi
3:00 PM39 °FFog.3 mph93%30.23 "Hg9 mi
2:00 PM37 °FFog.8 mph100%30.22 "Hg1 mi
1:52 PM37 °FFog.8 mph100%30.22 "Hg1 mi
1:00 PM36 °FFog.6 mph100%30.21 "Hg1 mi
12:00 PM36 °FFog.12 mph100%30.20 "Hg0 mi
11:00 AM36 °FFog.12 mph100%30.19 "Hg0 mi
10:00 AM39 °FFog.9 mph100%30.18 "Hg0 mi
9:00 AM39 °FFog.8 mph100%30.17 "Hg9 mi
8:00 AM37 °FFog.3 mph100%30.16 "Hg1 mi
7:00 AM36 °FFog.7 mph100%30.15 "Hg0 mi
6:00 AM37 °FFog.5 mph100%30.13 "Hg1 mi
5:51 AM37 °FFog.3 mph100%30.13 "Hg1 mi
5:00 AM36 °FFog.2 mph100%30.13 "Hg0 mi
4:00 AM36 °FFog.5 mph100%30.13 "Hg0 mi
3:00 AM36 °FFog.7 mph100%30.11 "Hg0 mi
2:00 AM36 °FFog.5 mph100%30.09 "Hg1 mi
1:00 AM36 °FFog.5 mph100%30.08 "Hg1 mi
12:00 AM36 °FLow clouds.6 mph100%30.07 "Hg10 mi
11:00 PM
Tue, Jul 26
36 °FFog.6 mph100%30.06 "Hg2 mi
Weather by CustomWeather, © 2016

See weather overviewHow to use our weather pages